Date,TemperatureHighF,TemperatureAvgF,TemperatureLowF,DewpointHighF,DewpointAvgF,DewpointLowF,HumidityHigh,HumidityAvg,HumidityLow,PressureMaxIn,PressureMinIn,WindSpeedMaxMPH,WindSpeedAvgMPH,GustSpeedMaxMPH,PrecipitationSumIn
2013-2-1,53,49,47,39,35,32,60,57,54,30.33,30.30,7,2,7,0.00
2013-2-2,61,54,42,58,44,29,89,70,55,30.34,30.16,15,4,15,0.00
2013-2-3,65,58,50,58,50,37,94,74,39,30.24,30.09,11,3,11,0.00
2013-2-4,64,58,50,58,50,36,91,75,60,30.09,29.95,12,3,12,0.00
2013-2-5,68,61,57,64,60,56,98,94,85,30.01,29.92,19,4,19,0.40
2013-2-6,64,61,56,62,59,56,99,95,87,30.12,29.99,19,4,19,0.00
2013-2-7,76,64,58,69,62,57,100,91,61,29.99,29.76,26,4,26,1.64
2013-2-8,68,61,55,63,59,53,99,93,82,30.12,29.91,10,2,10,0.01
2013-2-9,64,58,50,60,54,48,91,86,79,30.22,30.10,22,6,22,0.00
2013-2-10,68,66,63,67,64,59,99,93,85,30.10,29.92,24,11,24,0.01
2013-2-11,68,65,60,68,64,57,100,97,90,30.06,29.98,10,1,11,0.01
2013-2-12,68,64,59,68,63,57,99,96,91,30.01,29.75,23,5,23,0.07
2013-2-13,67,56,48,67,53,44,99,90,79,30.04,29.76,17,4,17,0.22
2013-2-14,57,50,45,48,44,40,89,78,63,30.15,30.01,10,1,10,0.00
2013-2-15,66,55,45,50,46,42,95,75,48,30.14,30.03,15,2,15,0.00
2013-2-16,55,50,42,47,32,18,76,51,29,30.26,30.05,22,6,25,0.00
2013-2-17,55,47,37,41,29,16,64,50,26,30.37,30.25,13,3,13,0.00
2013-2-18,63,59,54,58,49,40,85,70,59,30.27,30.00,29,14,30,0.00
2013-2-19,68,61,51,63,53,37,97,77,47,30.18,29.96,24,5,29,0.36
2013-2-20,59,50,44,43,35,29,80,57,35,30.24,30.04,15,2,15,0.00
2013-2-21,65,59,48,64,55,37,97,85,65,30.04,29.86,22,8,24,0.00
2013-2-22,68,64,61,68,64,61,100,99,97,29.95,29.83,22,3,23,0.65
2013-2-23,67,59,56,67,59,56,100,100,97,29.92,29.75,17,2,17,0.07
2013-2-24,64,59,52,61,57,52,100,93,78,29.96,29.77,17,4,24,0.37
2013-2-25,66,63,60,66,62,60,100,99,90,29.80,29.51,29,9,29,0.50
2013-2-26,64,57,54,64,48,43,100,74,62,29.90,29.52,21,9,25,0.30
2013-2-27,63,57,50,55,47,42,82,70,48,30.01,29.89,16,3,17,0.00
2013-2-28,60,54,49,54,41,32,88,62,42,30.07,29.94,17,4,17,0.00